Miscellaneous Local Product
Issued by NWS Hastings, NE

Home | Current Version | Previous Version | Text Only | Print | Product List | Glossary On
Versions: 1 2 3 4 5 6 7 8 9 10 11 12 13 14 15 16 17 18 19 20 21 22 23 24 25 26 27 28 29 30 31 32 33 34 35 36 37 38 39 40 41 42 43 44 45 46 47 48 49 50
606
AXUS43 KGID 191902
MISGRI

GID CWA HOURLY WEATHER ROUNDUP
NATIONAL WEATHER SERVICE HASTINGS NE
200 PM CDT THU APR 19 2018

NOTE: "FAIR" INDICATES FEW OR NO CLOUDS BELOW 12,000 FEET WITH NO
SIGNIFICANT WEATHER AND/OR OBSTRUCTIONS TO VISIBILITY.

...SOUTH CENTRAL NEBRASKA...

CITY           SKY/WX    TMP DP  RH WIND       PRES   REMARKS
GRAND ISLAND   SUNNY     51  31  46 VRB5      30.45F
KEARNEY        SUNNY     51  28  41 SE7       30.43F
HASTINGS       SUNNY     51  30  44 S5        30.44F
ORD            SUNNY     51  22  31 SE7       30.41F
YORK             N/A     54  27  35 CALM      30.45F
AURORA         SUNNY     51  26  37 SE5       30.44F
LEXINGTON      SUNNY     52  31  44 E5        30.40F
HOLDREGE       SUNNY     51  30  43 E9        30.40F
HEBRON         SUNNY     53  28  37 CALM      30.45F

...NEBRASKA PANHANDLE...

CITY           SKY/WX    TMP DP  RH WIND       PRES   REMARKS
CHADRON        PTSUNNY   59  32  36 S24G30    30.24F
ALLIANCE       PTSUNNY   56  33  42 SE24G30   30.25F
SCOTTSBLUFF    MOSUNNY   58  30  34 SE23G31   30.21F
SIDNEY         MOSUNNY   57  27  31 S28G37    30.25F

...WESTERN AND NORTH CENTRAL NEBRASKA...

CITY           SKY/WX    TMP DP  RH WIND       PRES   REMARKS
VALENTINE      PTSUNNY   51  29  42 SE14      30.37F
AINSWORTH      MOSUNNY   48  32  52 SE12      30.39F
ONEILL         SUNNY     50  24  36 SE3       30.44F
BROKEN BOW     SUNNY     52  32  46 E10       30.40F
IMPERIAL       SUNNY     58  30  34 SE17      30.31F
NORTH PLATTE   SUNNY     57  32  38 SE12      30.35F
MCCOOK         SUNNY     56  28  34 E14G20    30.36F

...EASTERN NEBRASKA...

CITY           SKY/WX    TMP DP  RH WIND       PRES   REMARKS
NORFOLK        SUNNY     51  23  33 NE9       30.45F
SO SIOUX CITY  SUNNY     49  32  52 SE5       30.48F
TEKAMAH        SUNNY     51  33  50 NW5       30.47F
COLUMBUS       SUNNY     53  21  28 E9G17     30.46
ALBION         SUNNY     52  23  33 SE6       30.44F
OMAHA EPPLEY   MOSUNNY   54  29  38 VRB3      30.47S
OFFUTT AFB     SUNNY     54  29  38 S3        30.46F
MILLARD        SUNNY     54  31  42 E3        30.47S
LINCOLN        SUNNY     55  27  34 VRB6      30.47F
NEBRASKA CITY  SUNNY     53  32  44 CALM      30.46F
BEATRICE       SUNNY     55  32  42 SE3       30.45F
FALLS CITY     SUNNY     56  28  34 MISG      30.45F

...NORTHERN KANSAS...

CITY           SKY/WX    TMP DP  RH WIND       PRES   REMARKS
GOODLAND       SUNNY     59  28  30 SE18G31   30.30F
HILL CITY      SUNNY     56  29  35 SE9       30.40F
NORTON         CLEAR     57  27  30 E8        30.38F
PHILLIPSBURG   SUNNY     55  25  30 E7G16     30.42F
SMITH CENTER   SUNNY     54  27  35 NE5       30.43F
BELOIT         SUNNY     45  21  39 CALM      30.44F
HAYS           SUNNY     55  25  31 E7        30.41F
RUSSELL        SUNNY     57  29  34 E13G20    30.40F
CONCORDIA      SUNNY     54  27  35 VRB5      30.44F
SALINA         SUNNY     56  30  37 N8        30.44F
TOPEKA         SUNNY     56  31  38 MISG      30.46F



USA.gov is the U.S. government's official web portal to all federal, state and local government web resources and services.